Location: Audinghen
(50.8518°N, 1.6129°E)
Time: 16:05:12
(UTC+00:00)

Cosmos 1825 Rocket - Pass Details

Date: 07 August 2020
Orbit: 603 x 631 km, 82.5° (Epoch: 19 September)

Event Time Altitude Azimuth Distance (km) Brightness Sun altitude
Rises 03:47:20 0° 349° (N) 2,890 7.4 -6.5°
Reaches altitude 10° 03:49:35 10° 350° (N) 1,976 6.5 -6.2°
Maximum altitude 03:53:58 90° 268° (W) 615 3.6 -5.6°
Drops below altitude 10° 03:58:17 10° 171° (S) 1,949 5.9 -5.0°
Sets 04:00:28 0° 172° (S) 2,846 6.7 -4.7°
